Location: Newark
(34.1333°N, 7.9667°W)
Time: 11:09:07
(UTC+00:00)

FO-29 - Visible Passes

Search period start: 05 June 2023 00:00
Search period end: 15 June 2023 00:00
Orbit: 799 x 1322 km, 98.5° (Epoch: 04 June)

Date Brightness Start Highest point End Pass type
(mag) Time Alt. Az. Time Alt. Az. Time Alt. Az.
05 Jun 11.5 03:56:36 10° NE 04:00:56 23° E 04:05:35 10° SSE visible
06 Jun 9.9 04:45:29 10° NNE 04:51:00 66° ESE 04:57:10 10° S visible
07 Jun 11.6 03:51:32 10° NE 03:55:46 21° E 04:00:18 10° SE visible
08 Jun 10.0 04:40:16 10° NNE 04:45:50 61° ESE 04:52:05 10° S visible
09 Jun 11.7 03:46:28 10° NE 03:50:36 20° E 03:55:02 10° SE visible
10 Jun 10.2 04:35:04 10° NNE 04:40:41 56° E 04:47:01 10° S visible
11 Jun 11.8 03:41:26 10° NE 03:45:26 19° E 03:49:44 10° SE visible
12 Jun 10.4 04:29:52 10° NNE 04:35:33 52° E 04:41:56 10° S visible
13 Jun 11.9 03:36:25 10° NE 03:40:18 17° E 03:44:25 10° SE visible
14 Jun 10.5 04:24:40 10° NNE 04:30:25 49° E 04:36:52 10° S visible
